Weather History for Beaufort, NC

Change the Weather History Date:

Friday, April 5, 2013

  Actual Average Record
Temperature  
Mean Temperature 55 °F -  
Max Temperature 63 °F 68 °F 82 °F (1988)
Min Temperature 45 °F 50 °F 31 °F (1975)
Degree Days  
Heating Degree Days 10    
Growing Degree Days 5 (Base 50)    
Moisture  
Dew Point 52 °F    
Average Humidity 89    
Maximum Humidity 100    
Minimum Humidity 67    
Precipitation  
Precipitation 0.36 in - - ()
Sea Level Pressure  
Sea Level Pressure 29.84 in    
Wind  
Wind Speed 13 mph (WNW)    
Max Wind Speed 24 mph    
Max Gust Speed 32 mph    
Visibility 7 miles    
Events Fog , Rain    
Averages and records for this station are not official NWS values.
T = Trace of Precipitation, MM = Missing Value Source: NWS Daily Summary

Daily Weather History Graph

Daily Weather History Graph

Search for Another Location

Airport:

Trip Planner

Search our weather history database for the weather conditions in past years. The results will help you decide how hot, cold, wet, or windy it might be!

Date:

Astronomy

Apr. 05, 2013 Rise Set
Actual Time 6:47 AM EDT 7:31 PM EDT
Civil Twilight 6:22 AM EDT 7:56 PM EDT
Nautical Twilight 5:52 AM EDT 8:26 PM EDT
Astronomical Twilight 5:21 AM EDT 8:57 PM EDT
Moon 3:42 AM EDT (4/5) 3:03 PM EDT (4/5)
Length of Visible Light 13h 34m
Length of Day
12h 43m
Waning Crescent, 24% of the Moon is Illuminated
Apr 5
Waning Crescent
Apr 10
New
Apr 18
First Quarter
Apr 25
Full
May 2
Last Quarter

Hourly Weather History & Observations

Time (EDT) Temp. Dew Point Humidity Pressure Visibility Wind Dir Wind Speed Gust Speed Precip Events Conditions
12:12 AM 62.6 °F 60.8 °F 94% 29.76 in 3.0 mi SSE 15.0 mph 25.3 mph 0.08 in Rain Rain
12:29 AM 62.6 °F 60.8 °F 94% 29.76 in 1.8 mi South 18.4 mph 28.8 mph 0.21 in Rain Heavy Rain
12:34 AM 62.6 °F 60.8 °F 94% 29.75 in 1.0 mi SSE 24.2 mph 32.2 mph 0.30 in Rain Heavy Rain
12:40 AM 62.6 °F 62.6 °F 100% 29.74 in 1.2 mi SE 18.4 mph 32.2 mph 0.35 in Rain Heavy Rain
12:47 AM 64.4 °F 62.6 °F 94% 29.74 in 3.0 mi South 18.4 mph 25.3 mph 0.36 in Rain Light Rain
12:58 AM 63.0 °F 62.1 °F 97% 29.74 in 7.0 mi SSE 12.7 mph 24.2 mph 0.36 in   Overcast
1:24 AM 62.6 °F 60.8 °F 94% 29.74 in 4.0 mi SSW 16.1 mph - N/A   Overcast
1:32 AM 62.6 °F 60.8 °F 94% 29.74 in 2.5 mi SSW 13.8 mph - N/A   Overcast
1:36 AM 62.6 °F 60.8 °F 94% 29.74 in 1.0 mi SSW 13.8 mph - N/A   Overcast
1:43 AM 60.8 °F 60.8 °F 100% 29.74 in 0.5 mi SSW 15.0 mph - N/A Fog Fog
1:58 AM 60.1 °F 59.0 °F 96% 29.74 in 0.5 mi SW 19.6 mph 25.3 mph N/A Fog Fog
3:14 AM 57.2 °F 55.4 °F 94% 29.73 in 1.8 mi WSW 12.7 mph - N/A   Mist
3:18 AM 57.2 °F 57.2 °F 100% 29.73 in 3.0 mi WSW 11.5 mph - N/A   Mist
3:35 AM 57.2 °F 57.2 °F 100% 29.74 in 5.0 mi WSW 11.5 mph 19.6 mph N/A   Overcast
3:45 AM 57.2 °F 57.2 °F 100% 29.74 in 6.0 mi West 13.8 mph - N/A   Overcast
3:58 AM 57.0 °F 55.9 °F 96% 29.75 in 10.0 mi West 13.8 mph 20.7 mph N/A   Overcast
4:58 AM 52.0 °F 51.1 °F 97% 29.78 in 10.0 mi WNW 15.0 mph - N/A   Overcast
5:58 AM 48.9 °F 48.0 °F 97% 29.81 in 10.0 mi WNW 13.8 mph - N/A   Overcast
6:58 AM 48.0 °F 46.0 °F 93% 29.82 in 10.0 mi NW 15.0 mph - N/A   Overcast
7:58 AM 46.9 °F 44.1 °F 90% 29.86 in 10.0 mi NNW 13.8 mph - N/A   Overcast
8:58 AM 46.9 °F 45.0 °F 93% 29.90 in 10.0 mi North 5.8 mph - N/A   Overcast
9:58 AM 48.9 °F 46.0 °F 90% 29.87 in 10.0 mi NNE 10.4 mph - N/A   Overcast
10:53 AM 51.8 °F 46.4 °F 82% 29.88 in 10.0 mi NNE 8.1 mph - 0.00 in   Overcast
10:58 AM 51.1 °F 46.9 °F 86% 29.89 in 10.0 mi NNE 11.5 mph - 0.00 in   Overcast
11:29 AM 51.8 °F 46.4 °F 82% 29.90 in 10.0 mi NNE 10.4 mph 16.1 mph N/A   Overcast
11:58 AM 53.1 °F 48.0 °F 83% 29.91 in 10.0 mi NNE 6.9 mph 16.1 mph N/A   Overcast
12:58 PM 54.0 °F 48.0 °F 80% 29.91 in 10.0 mi NNE 9.2 mph - N/A   Overcast
1:58 PM 53.1 °F 46.9 °F 80% 29.91 in 10.0 mi North 9.2 mph - N/A   Overcast
2:58 PM 53.1 °F 46.9 °F 80% 29.89 in 10.0 mi North 11.5 mph - N/A   Overcast
3:58 PM 54.0 °F 46.0 °F 75% 29.88 in 10.0 mi NNE 12.7 mph - N/A   Overcast
4:58 PM 55.9 °F 46.9 °F 72% 29.89 in 10.0 mi North 8.1 mph - N/A   Mostly Cloudy
5:42 PM 55.4 °F 46.4 °F 72% 29.90 in 10.0 mi North 6.9 mph - N/A   Scattered Clouds
5:58 PM 55.9 °F 45.0 °F 67% 29.90 in 10.0 mi Variable 6.9 mph - N/A   Clear
6:58 PM 55.0 °F 45.0 °F 69% 29.93 in 10.0 mi North 4.6 mph - N/A   Partly Cloudy
7:58 PM 51.1 °F 45.0 °F 80% 29.95 in 10.0 mi Calm Calm - N/A   Clear
8:58 PM 48.0 °F 44.1 °F 86% 29.98 in 6.0 mi Calm Calm - N/A   Clear
9:58 PM 46.9 °F 44.1 °F 90% 30.00 in 9.0 mi Calm Calm - N/A   Clear
10:58 PM 46.0 °F 44.1 °F 93% 30.01 in 10.0 mi Calm Calm - N/A   Clear
11:58 PM 45.0 °F 43.0 °F 93% 30.01 in 8.0 mi Calm Calm - N/A   Clear